GORIZONT 7 (14160 NORAD) Tracking and Keplerian Element Data

This shows tracking and keplerian element data for the satellite.

Feedback or suggestion? Click here.




ElementValue
Catalog14160
NameGORIZONT 7
Epoch Orbit15299
Epoch Day354.15706572
Epoch Year2025
RAAN313.6609
Inclination9.6768
Eccentricity0.0014182
Argument of Perigee340.218
Mean Anonmoly22.4427
Mean Motion0.98350095
Decay Rate-1.82E-06
L11 14160U 83066A 25354.15706572 -.00000182 00000+0 00000+0 0 9997
L22 14160 9.6768 313.6609 0014182 340.2180 22.4427 0.98350095152998



Live tracking and technical data element details for GORIZONT 7 (NORAD 14160). GORIZONT 7 can be tracked NOW for your location showing map with azimuth and elevation plus other details from your city location.







IsCatalogInMostPopularTable: catalog: 14160, numindb: 403
Update: records affected: 1



GetName: 14160 GORIZONT 7

Hit Count: updated at: Thu, 16 Apr 2026 05:30:43 GMT